User: anonymous   Login
Location: Unspecified
(0.0000°N, 0.0000°E)
Time: 08:49:55
(UTC+00:00)
Language:

USA 198 - Orbit

View from above orbital plane
View from above orbital plane
View from above satellite
View from above satellite

Ground track
Ground track

The orbit data is extracted from the following two-line orbital elements,

1 32378U 07060A   17020.79211587 0.00000000  00000-0  00000-0 0    09
2 32378  64.0077 227.2559 7035956 268.8233  17.0657  2.00615000    08
Epoch (UTC): 20 January 2017 19:00:38
Eccentricity: 0.7035956
inclination: 64.0077°
perigee height: 1493 km
apogee height: 38862 km
right ascension of ascending node: 227.2559°
argument of perigee: 268.8233°
revolutions per day: 2.00615000
mean anomaly at epoch: 17.0657°
orbit number at epoch: 0

The dashed part of the orbit path shows where the satellite is in the earth's shadow,  

DLR